GFSFLT1_prec_cloud_072.txt.gz
Cloud_Cover
7 5 3 2 1 0 0 73 100 44 82 100 100 100 100 100 100 100 100 100 100 100 100 100 100 100 100 69 65 50 88 100
5 37 5 2 0 0 53 100 79 81 80 91 100 100 100 100 100 100 100 100 100 100 100 100 100 100 100 99 68 100 82 100
33 6 18 3 26 3 11 53 99 72 100 91 100 100 100 100 100 100 100 100 100 100 100 100 100 100 100 99 100 100 100 100
5 5 4 28 47 60 94 100 94 95 100 91 97 100 100 100 100 100 100 100 100 100 100 100 100 100 100 100 100 100 100 100
10 5 4 54 80 65 65 64 74 89 100 100 88 100 93 96 100 100 100 100 100 100 100 100 100 100 100 100 100 100 100 100
32 5 5 4 87 97 53 43 41 26 96 78 96 100 95 100 100 100 100 100 100 100 100 100 100 100 100 100 100 100 100 100
5 49 4 3 92 100 77 46 39 30 54 97 67 85 97 100 100 100 100 100 100 100 100 100 100 100 100 100 100 100 100 100
29 5 5 39 95 100 100 46 84 62 51 74 63 64 96 42 100 100 100 100 100 100 100 100 100 100 100 100 100 100 100 100
5 5 34 42 56 100 100 96 84 100 96 67 96 100 95 100 37 96 97 50 95 100 100 100 100 100 100 100 100 100 100 100
19 46 58 22 37 95 98 100 71 100 99 85 100 100 94 38 1 4 4 73 86 100 100 100 100 100 100 100 100 100 100 100
96 94 100 86 5 30 66 78 55 96 26 91 74 100 100 67 0 0 0 18 46 99 100 100 100 100 100 100 100 100 100 100
100 100 100 23 7 17 31 47 64 80 95 100 38 100 100 100 94 2 0 0 2 38 77 100 100 100 100 100 100 100 100 100
100 100 100 100 55 5 5 39 67 81 73 100 11 55 100 100 100 87 13 24 12 0 31 70 100 100 100 100 100 100 100 100
100 100 100 100 96 35 14 86 41 24 38 45 7 4 2 76 100 100 100 100 100 100 96 48 15 2 1 58 99 100 100 100
100 100 100 100 96 100 100 100 100 96 17 49 25 58 13 47 28 24 99 100 100 100 100 100 91 37 48 4 5 9 15 3
100 100 100 100 100 100 100 100 100 100 100 61 78 42 5 24 31 9 2 6 68 100 100 100 100 100 100 70 18 5 16 9
100 100 100 100 100 100 100 100 100 100 100 100 100 90 44 5 52 100 99 73 38 5 18 100 100 100 100 100 100 84 63 82
100 100 100 100 100 100 100 100 100 86 97 99 100 100 100 100 99 100 100 98 100 100 46 26 42 98 100 100 98 100 100 100
100 100 100 100 100 100 92 77 78 65 100 94 93 97 81 96 100 100 100 100 85 100 100 100 98 91 100 100 100 100 100 100

GFSFLT1_prec_cloud_075.txt.gz
Cloud_Cover
5 6 18 20 31 33 33 44 59 76 66 97 99 100 100 100 100 100 100 100 100 100 100 100 100 100 100 100 82 75 98 100
36 61 28 38 71 57 40 55 74 80 100 100 100 100 100 100 100 100 100 100 100 100 100 100 100 100 100 100 65 93 90 84
100 14 82 62 97 67 51 48 100 89 57 85 91 100 100 100 100 100 100 100 100 100 100 100 100 100 100 100 100 98 77 100
100 29 56 95 91 59 24 27 99 100 100 93 100 88 100 100 100 100 100 100 100 100 100 100 100 100 100 99 97 100 85 100
39 5 61 99 82 28 0 7 58 99 100 96 100 59 95 100 100 100 100 100 100 100 100 100 100 100 100 100 100 98 100 100
100 85 69 100 94 100 91 100 98 100 89 100 79 100 100 75 100 100 100 100 100 100 100 100 100 100 100 100 100 100 100 100
96 70 88 100 99 100 100 100 100 100 55 61 50 99 73 96 100 100 100 100 100 100 100 100 100 100 100 100 100 100 100 100
8 100 62 100 100 100 100 100 100 100 80 46 26 0 56 95 94 100 100 100 100 100 100 100 100 100 100 100 100 100 100 100
31 6 84 100 100 100 100 100 100 100 100 94 32 0 65 93 100 100 96 82 100 100 100 100 100 100 100 100 100 100 100 100
99 13 91 71 83 100 100 99 78 97 100 100 93 42 28 71 92 100 100 100 75 100 100 100 100 100 100 100 100 100 100 100
83 71 100 100 54 96 100 100 44 99 100 100 100 49 13 4 0 16 88 100 100 100 97 86 100 100 100 100 100 100 100 100
100 99 98 100 100 100 100 100 94 100 100 100 100 59 14 9 10 0 2 41 48 43 41 100 100 100 100 100 100 100 100 100
100 100 95 100 96 100 100 100 100 100 100 100 100 100 32 100 100 69 0 0 0 0 3 91 100 100 93 65 100 98 100 100
100 100 100 100 38 94 100 60 90 100 100 99 100 100 46 17 84 99 100 97 24 0 14 13 9 80 100 92 95 100 100 100
100 100 100 100 100 100 100 100 100 97 87 100 100 100 28 17 5 5 2 19 91 97 100 100 98 65 30 19 27 53 99 100
100 100 100 100 100 100 100 100 100 84 80 90 100 94 53 68 78 67 92 76 50 50 96 100 100 100 100 98 83 88 91 65
100 100 100 100 100 100 100 100 100 100 100 100 100 100 100 100 100 100 97 93 100 97 98 99 80 72 100 100 100 100 100 100
100 100 100 100 100 100 100 100 100 100 100 100 100 100 100 100 100 100 100 100 100 100 100 100 100 100 97 97 100 100 100 100
100 100 100 100 100 100 100 100 100 100 100 100 100 100 100 100 100 100 100 100 100 100 100 100 100 100 100 100 100 100 100 100

GFSFLT1_prec_cloud_078.txt.gz
Cloud_Cover
100 100 41 7 28 34 100 100 100 98 100 100 97 100 100 100 100 100 100 100 100 100 100 100 100 100 100 100 100 96 99 91
83 100 86 48 87 88 100 100 100 100 100 100 100 100 100 100 100 100 100 100 100 100 100 100 100 100 100 100 100 100 100 100
100 100 86 100 93 100 100 100 100 100 54 100 82 100 100 100 100 100 100 100 100 100 100 100 100 100 100 100 100 100 100 100
100 97 96 73 57 100 100 100 100 99 98 100 80 98 100 100 100 100 100 100 100 100 100 100 100 100 100 100 100 100 100 100
100 100 82 28 78 100 100 100 100 100 40 100 82 100 100 100 100 100 100 100 100 100 100 100 100 100 100 98 98 100 99 100
100 100 100 9 100 100 93 88 100 100 100 100 6 55 98 100 100 100 100 100 100 100 100 100 100 100 100 100 100 100 100 100
93 91 100 72 100 75 50 35 65 99 100 100 3 52 100 79 99 100 100 100 100 100 100 100 100 100 100 100 100 100 100 100
66 95 96 82 100 55 65 100 100 100 100 100 84 12 100 83 84 99 100 100 100 100 100 100 100 100 100 100 100 100 100 100
91 100 100 31 97 92 100 100 100 100 100 100 94 0 8 18 38 72 100 100 100 100 100 100 100 100 100 100 100 100 100 100
100 100 69 21 77 100 100 100 100 100 100 100 100 59 25 100 100 90 100 100 98 100 100 100 100 100 100 100 100 100 100 100
88 23 100 97 100 100 100 100 100 100 100 100 100 100 100 100 100 97 100 100 59 61 30 98 100 100 100 100 100 100 100 100
100 81 97 100 100 100 100 100 100 100 100 100 100 100 100 99 74 89 56 98 100 100 76 88 100 100 100 99 100 100 100 100
100 100 100 100 100 100 100 100 100 100 100 100 100 100 100 84 73 100 100 68 79 100 100 100 100 100 100 100 100 100 100 100
100 100 100 100 100 100 100 100 100 100 100 100 100 100 100 84 6 21 76 98 40 66 99 90 88 83 100 97 100 100 100 100
100 100 100 100 100 100 100 100 100 100 100 100 100 100 100 98 16 14 12 4 12 70 69 58 24 10 69 99 100 100 100 100
100 100 100 100 100 100 100 100 100 100 100 100 100 100 100 100 98 74 60 74 94 63 37 27 84 100 100 100 100 100 100 100
100 100 100 100 100 100 100 100 100 100 100 100 100 100 100 100 100 100 100 100 100 100 100 100 100 100 100 100 93 100 100 100
100 100 100 100 100 100 100 100 100 100 100 100 100 100 100 100 100 100 100 100 100 100 100 100 100 100 100 94 100 100 100 100
100 100 100 100 100 100 100 100 100 100 100 100 100 100 100 100 100 100 100 100 100 100 100 100 100 100 100 100 100 100 100 100

GFSFLT1_prec_cloud_084.txt.gz
Cloud_Cover
0 0 0 0 0 0 5 29 97 68 100 100 100 82 100 100 100 100 100 100 100 100 100 100 100 100 100 100 100 100 92 100
0 0 0 0 0 0 5 99 81 97 100 87 100 98 88 100 100 100 100 100 100 100 100 100 100 100 100 100 100 100 100 100
0 0 0 0 0 0 26 39 94 86 15 12 63 84 92 100 100 79 74 98 100 100 100 100 100 100 100 100 100 100 100 100
0 0 0 0 0 0 38 44 97 56 5 18 95 91 71 87 80 85 50 63 100 100 100 100 100 100 100 100 100 100 100 100
0 0 0 0 1 7 50 74 49 83 38 39 67 3 50 71 58 71 100 100 100 100 100 100 100 100 100 100 100 100 100 100
0 0 0 0 47 94 85 99 79 61 42 12 24 35 64 80 98 81 100 100 100 100 100 100 100 100 100 100 100 100 100 100
0 0 0 9 42 78 98 100 100 95 44 18 20 62 60 52 93 100 100 100 100 100 100 100 100 100 100 100 100 100 100 100
0 0 3 100 97 100 100 100 100 86 68 28 90 85 57 25 94 100 100 100 100 100 100 100 100 100 100 100 100 100 100 100
18 94 42 96 94 100 100 100 100 99 43 49 90 100 72 81 96 100 100 100 100 100 100 100 100 100 100 100 100 100 100 100
15 100 100 100 100 100 100 100 100 100 48 90 86 100 100 92 100 100 100 100 100 100 100 100 100 100 100 100 100 100 100 100
100 100 100 100 100 100 100 100 100 100 100 99 100 100 100 100 100 100 100 96 100 100 100 100 100 100 100 100 100 100 100 100
100 100 100 100 100 100 100 100 100 100 94 100 100 100 100 100 100 100 100 81 100 100 100 100 100 100 100 100 100 100 100 100
100 100 100 100 100 100 100 100 100 100 100 100 100 88 100 100 100 100 100 100 98 100 91 100 100 100 100 100 100 100 100 100
100 100 100 100 100 100 100 100 100 100 100 100 99 85 88 100 100 100 99 100 100 100 100 100 100 100 100 100 100 100 100 100
100 100 100 100 100 100 100 100 100 100 100 100 100 100 100 100 100 100 100 100 100 100 100 100 100 100 100 100 100 100 100 100
100 100 100 100 100 100 100 100 100 100 100 100 100 100 100 100 100 100 100 100 100 100 100 100 100 100 100 100 100 99 100 100
100 100 100 100 100 100 100 100 100 100 100 100 100 100 100 100 100 100 100 100 100 100 100 100 100 100 100 90 100 100 100 100
100 100 100 100 100 100 100 100 100 100 100 100 100 100 100 100 100 100 100 100 100 100 100 100 100 100 100 100 100 100 100 100
100 100 100 100 100 100 100 100 100 100 100 100 100 100 100 100 100 100 100 100 100 100 100 100 100 100 100 100 100 100 100 100

GFSFLT1_prec_cloud_087.txt.gz
Cloud_Cover
100 100 84 39 2 0 0 17 20 35 28 52 27 38 96 100 100 100 61 98 100 100 100 100 100 100 100 100 100 100 100 100
100 86 10 5 0 0 0 22 17 74 56 90 14 37 94 100 100 100 100 100 100 100 100 100 100 100 100 100 100 100 100 100
100 100 84 3 0 0 0 7 7 46 26 7 5 31 50 94 66 52 84 98 100 100 100 100 100 100 100 100 100 100 100 100
96 35 8 0 0 0 0 0 7 98 18 10 7 44 89 79 10 29 87 30 97 88 100 100 100 100 100 100 100 100 100 100
100 16 4 0 0 0 0 0 1 84 28 5 56 16 6 18 48 100 100 81 95 90 100 100 100 100 100 100 100 100 100 100
100 7 4 5 0 0 0 0 6 69 54 48 74 94 5 12 60 91 100 99 88 92 100 100 100 100 100 100 100 100 100 100
12 23 14 65 15 0 0 4 49 99 61 96 94 22 1 2 14 100 100 95 100 100 100 100 100 100 100 100 100 100 100 100
38 73 5 2 34 0 20 24 85 90 88 97 79 6 0 2 52 92 100 100 100 100 100 100 100 100 100 100 100 100 100 100
3 27 0 0 0 0 50 100 100 100 100 91 34 13 0 9 100 89 92 100 100 100 100 100 100 100 100 100 100 100 100 100
7 0 0 0 3 36 82 100 100 100 100 100 27 21 14 34 100 55 99 88 95 100 100 100 100 100 100 100 100 100 100 100
77 11 51 71 52 98 100 100 100 100 100 99 28 27 74 97 100 78 100 98 97 100 100 100 100 100 100 100 100 100 100 100
100 94 43 100 99 100 100 100 100 100 100 98 82 99 100 41 30 95 100 100 97 100 100 100 100 100 100 100 100 100 100 100
100 100 100 100 100 100 100 100 100 100 100 100 100 100 100 100 100 100 100 100 93 100 100 100 100 100 100 100 100 100 100 100
100 100 100 100 100 100 100 100 100 100 100 100 100 93 100 100 100 89 100 100 100 100 100 100 100 100 100 100 100 100 100 100
100 100 100 100 100 100 100 100 100 100 100 100 100 100 100 100 65 100 100 100 100 100 100 95 100 100 100 100 100 100 100 100
100 100 100 100 100 100 100 100 100 100 100 100 100 100 100 100 100 100 100 100 100 100 100 100 100 100 100 100 100 100 100 100
100 100 100 100 100 100 100 100 100 100 100 100 100 100 100 100 100 100 100 100 100 100 100 100 100 100 100 100 100 100 100 100
100 100 100 100 100 100 100 100 100 100 100 100 100 100 100 100 100 100 100 100 100 100 100 100 100 100 100 100 100 100 100 100
100 100 100 100 100 100 100 100 100 100 100 100 100 100 100 100 100 100 100 100 100 100 100 100 100 100 100 100 98 100 100 100

GFSFLT1_prec_cloud_090.txt.gz
Cloud_Cover
100 100 100 100 100 100 100 100 28 0 1 55 36 12 0 5 100 97 86 24 7 15 82 85 63 100 100 100 100 100 100 100
100 100 100 100 100 100 100 9 21 4 6 63 24 0 0 96 100 100 2 23 42 11 55 66 62 61 100 100 100 100 100 100
100 100 100 100 100 100 100 100 62 1 2 50 1 0 0 13 99 100 100 98 30 0 100 100 100 100 100 100 100 100 100 100
100 100 100 100 100 100 100 41 0 3 25 78 6 1 29 19 24 98 100 100 93 48 47 100 100 100 100 100 100 100 100 100
100 100 100 100 100 100 100 99 5 3 66 7 11 0 6 3 9 29 8 28 45 50 43 92 94 100 100 100 100 100 100 100
100 100 100 100 100 100 100 100 52 0 75 15 8 5 32 5 5 3 20 100 98 86 100 83 98 100 100 100 100 100 100 100
100 100 100 100 100 99 98 86 2 2 17 23 14 42 3 24 5 0 100 82 100 100 96 85 99 100 90 100 100 100 100 100
100 100 100 100 100 86 62 5 0 0 36 93 15 10 34 13 0 18 58 99 100 100 100 98 100 100 100 100 100 100 100 100
100 100 100 100 96 19 98 5 0 0 72 94 55 58 51 16 0 97 81 97 8 97 100 99 100 100 100 100 100 100 100 100
100 100 100 100 25 52 5 6 0 10 100 89 100 83 42 5 1 6 96 89 100 100 100 100 100 100 100 100 100 100 100 100
100 100 100 34 8 4 17 9 22 96 100 81 100 89 45 5 17 2 14 95 67 100 100 100 100 100 100 100 100 100 100 100
100 100 100 100 100 54 56 47 64 87 100 100 100 62 53 66 100 67 68 78 98 16 94 100 100 100 100 100 100 100 100 100
100 100 100 100 100 100 100 86 100 100 100 100 100 100 99 100 100 85 100 100 100 100 68 100 100 100 100 100 100 100 100 100
100 100 100 100 100 100 100 100 100 100 100 100 100 100 100 100 100 100 100 100 100 100 99 100 100 100 100 100 100 100 100 100
100 100 100 100 100 100 100 100 100 100 100 100 100 100 100 100 100 100 100 98 100 100 100 100 100 100 100 100 100 100 100 100
97 98 100 100 100 100 100 100 100 100 100 100 100 100 100 100 100 100 100 100 100 100 100 100 100 100 100 100 100 100 100 100
100 100 100 100 100 100 100 100 100 100 100 100 100 100 100 100 100 100 100 100 100 100 100 100 100 100 100 100 100 100 100 100
100 100 100 100 100 100 100 100 100 100 100 100 100 100 100 100 100 100 100 100 100 100 100 100 100 100 100 100 100 100 100 100
100 100 100 100 100 100 100 100 100 100 100 100 100 100 100 100 100 100 100 100 100 100 100 100 100 100 100 100 100 100 100 100

GFSFLT1_prec_cloud_096.txt.gz
Cloud_Cover
74 100 98 75 100 17 100 100 100 100 46 90 100 100 100 96 100 100 100 50 0 0 19 50 100 100 100 100 100 100 100 100
0 1 5 5 100 100 5 100 100 100 100 100 100 100 100 98 100 100 95 15 27 31 16 54 94 100 100 100 100 100 100 100
3 40 94 5 85 100 28 98 100 100 100 100 97 100 97 100 100 69 100 34 100 98 44 55 99 100 100 100 100 100 100 100
67 93 97 70 46 100 99 98 100 100 100 100 90 100 100 92 96 100 67 67 89 100 94 28 97 100 100 100 96 100 100 100
5 69 96 59 6 52 100 100 100 100 100 100 88 100 82 98 93 92 78 100 100 100 100 40 67 88 100 100 100 100 100 100
100 100 100 100 100 100 100 100 100 100 100 100 44 100 83 96 92 5 6 77 100 100 70 92 100 100 100 100 100 100 100 100
100 100 94 44 100 100 100 100 100 100 100 46 37 98 86 100 16 97 61 46 91 100 92 82 100 99 58 64 97 100 100 100
100 100 100 100 100 100 100 100 98 99 93 99 100 100 100 73 66 90 100 96 76 70 99 100 100 82 34 53 100 100 92 92
100 100 100 100 100 100 100 100 90 98 100 100 100 100 100 100 100 100 100 100 100 100 74 86 100 100 100 90 100 100 98 58
100 100 100 100 100 100 100 68 100 100 100 100 100 100 100 100 100 99 100 100 47 46 39 98 74 100 100 100 100 96 100 95
100 100 100 100 100 100 100 100 100 100 100 100 100 100 100 100 100 98 100 41 9 95 25 46 100 100 100 99 100 100 100 100
100 100 100 100 100 100 100 100 99 100 100 100 100 100 100 100 100 34 86 4 62 100 54 100 100 94 100 100 100 100 100 100
100 100 100 100 100 100 100 100 100 100 100 100 100 100 100 100 100 100 58 8 100 92 100 100 100 100 100 100 100 100 100 100
81 100 100 100 100 100 100 100 100 100 100 100 100 100 100 100 100 100 94 79 100 94 100 100 100 96 100 100 100 100 100 100
100 98 100 100 100 100 100 100 100 100 100 100 100 100 100 100 100 100 100 100 100 100 100 100 100 100 100 100 100 100 100 100
100 100 100 100 100 100 100 100 100 100 100 100 100 100 100 100 100 100 100 100 100 100 100 100 100 100 100 100 100 100 100 100
100 100 100 100 100 100 100 100 100 100 100 100 100 100 100 100 100 100 100 100 100 100 100 100 100 100 100 100 100 100 100 100
100 100 100 100 100 100 100 100 100 100 100 100 100 100 100 100 100 100 100 100 100 100 100 100 100 100 100 100 100 100 100 100
100 100 100 100 100 100 100 100 100 100 100 100 100 100 100 100 100 100 100 100 100 100 100 100 100 100 100 100 100 100 100 100

GFSFLT1_prec_cloud_102.txt.gz
Cloud_Cover
5 4 5 32 61 18 5 5 4 34 60 100 98 90 100 100 100 100 100 100 74 96 100 100 100 100 100 100 100 100 96 100
5 6 31 100 100 92 5 4 3 28 94 100 100 100 100 100 100 100 87 100 100 100 100 100 100 100 100 100 100 100 100 100
5 45 98 96 13 4 9 5 2 18 7 86 92 100 100 100 100 99 100 100 100 100 100 100 100 100 100 100 100 100 100 100
4 3 4 0 0 0 12 4 0 0 0 65 100 90 100 100 100 100 100 100 100 100 100 100 100 100 96 100 100 100 100 100
1 0 0 0 0 8 1 0 35 6 22 66 100 90 47 100 100 100 100 100 100 100 100 100 100 100 100 100 100 100 100 100
0 0 0 0 3 39 59 44 52 2 64 18 41 53 24 66 100 100 100 100 100 100 100 100 100 96 100 100 100 100 100 100
0 1 0 11 38 32 60 89 70 72 96 92 94 98 96 33 100 100 100 100 100 100 100 100 100 98 100 100 100 100 100 100
0 12 38 70 94 96 77 100 100 100 88 95 98 73 88 22 100 100 100 100 100 100 82 100 100 100 81 79 99 100 100 100
14 100 100 100 100 100 100 100 100 97 100 100 100 100 42 29 100 100 100 100 100 100 100 100 100 100 100 100 68 100 100 100
32 87 100 100 100 100 100 100 100 100 100 100 100 100 95 98 85 28 100 100 100 100 100 100 100 100 100 90 100 100 100 100
93 100 100 100 100 100 100 100 100 100 100 100 100 100 100 90 100 100 100 100 100 100 100 98 59 76 54 100 100 100 100 100
100 100 100 100 100 100 100 100 100 100 100 100 100 100 100 100 100 100 100 100 100 100 100 100 86 88 100 100 100 92 75 88
100 100 100 100 100 100 100 100 100 100 100 100 100 100 100 100 100 100 100 100 100 100 100 100 100 100 100 100 88 41 82 52
100 100 100 100 100 100 100 100 100 100 100 100 100 100 100 100 100 100 100 100 100 100 100 100 100 95 100 90 48 98 100 100
100 100 100 100 100 100 100 100 100 100 100 100 100 100 100 100 100 100 100 100 100 100 100 100 89 100 99 94 100 100 100 100
100 100 100 100 100 100 100 100 100 100 100 100 100 100 100 100 100 100 100 100 100 100 100 100 100 100 94 98 100 100 100 100
100 100 100 100 100 100 100 100 100 100 100 100 100 100 100 100 100 100 100 100 100 100 100 100 100 100 100 100 100 100 100 100
100 100 100 100 100 100 100 100 100 100 100 100 100 100 100 100 100 100 100 100 100 100 100 100 100 100 100 100 100 100 100 100
100 100 100 100 100 100 100 100 100 100 100 100 100 100 100 100 100 100 100 100 100 100 100 100 100 100 100 100 100 100 100 100

GFSFLT1_prec_cloud_105.txt.gz
Cloud_Cover
5 5 88 95 81 52 6 10 5 5 6 58 100 100 58 74 82 100 100 100 100 100 100 100 99 100 100 100 100 99 100 100
97 39 26 46 5 5 1 2 5 2 5 28 65 100 92 100 100 100 100 100 100 100 100 100 100 100 100 100 100 100 100 98
66 16 9 5 2 4 5 0 0 0 1 2 5 4 96 92 100 100 100 100 100 100 100 100 100 100 100 100 100 100 100 100
14 10 78 100 100 90 4 3 30 4 0 0 3 9 83 100 100 100 100 100 100 100 100 100 100 100 100 100 100 100 100 100
8 21 100 92 100 100 96 12 56 29 25 10 38 12 74 95 100 100 100 100 100 100 100 100 100 100 100 100 100 96 87 100
2 10 100 100 100 100 100 100 100 76 66 21 92 85 25 16 99 84 100 100 100 100 100 100 100 100 100 100 100 100 100 100
26 95 100 100 100 100 100 100 100 100 100 70 33 92 45 88 88 84 100 100 100 100 100 100 100 100 100 97 100 100 100 100
95 80 100 58 22 54 100 100 100 100 100 100 31 17 100 96 91 50 99 100 100 100 100 100 100 100 100 100 100 100 100 100
50 47 26 97 84 98 100 100 100 100 100 100 60 0 98 100 77 71 64 82 88 100 100 100 100 100 100 100 100 78 98 100
96 50 51 98 89 100 100 100 100 100 100 100 100 86 88 100 100 91 100 100 100 100 100 100 100 100 100 100 100 100 94 69
53 54 88 100 82 100 100 100 100 100 100 100 99 95 100 100 100 100 100 100 100 100 100 100 100 100 100 100 100 99 90 71
66 73 100 100 100 100 100 100 100 100 100 100 100 100 100 100 100 100 100 100 100 100 100 100 100 100 100 100 100 99 91 100
82 100 100 100 100 100 100 100 100 100 100 100 100 100 100 100 100 100 100 100 100 100 100 100 100 100 100 100 100 100 100 100
100 100 100 100 100 100 100 100 100 100 100 100 100 100 100 100 100 100 100 100 100 100 100 100 100 100 100 100 100 100 98 91
100 100 100 100 100 100 100 100 100 100 100 100 100 100 100 100 100 100 100 100 100 100 100 100 100 100 100 100 100 100 99 100
100 100 100 100 100 100 100 100 100 100 100 100 100 100 100 100 100 100 100 100 100 100 100 95 99 100 100 100 100 88 100 100
100 100 100 100 100 100 100 100 100 100 100 100 100 100 100 100 100 100 100 100 100 100 100 100 100 100 100 100 100 100 100 100
100 100 100 100 100 100 100 100 100 100 100 100 100 100 100 100 100 100 100 100 100 100 100 100 100 100 100 100 100 100 100 100
100 100 100 100 100 100 100 100 100 100 100 100 100 100 100 100 100 100 100 100 100 100 100 100 100 100 100 100 100 100 100 100

GFSFLT1_prec_cloud_111.txt.gz
Cloud_Cover
20 21 27 74 66 95 95 100 100 100 100 100 100 98 30 87 100 100 100 100 98 55 10 50 100 95 44 5 52 96 82 100
5 5 5 5 5 31 62 100 100 100 100 100 100 100 100 100 100 100 100 100 100 100 48 24 60 100 58 16 100 100 100 100
22 5 5 5 5 6 66 23 16 61 58 88 96 100 100 100 100 100 100 100 100 93 80 43 48 100 100 68 100 100 100 100
50 9 5 18 16 36 5 12 24 11 5 5 10 25 18 38 65 99 100 100 90 100 90 100 29 100 100 71 100 100 100 100
30 17 37 32 5 5 5 4 4 5 5 24 69 26 16 32 10 3 10 24 15 99 100 100 82 85 100 85 100 100 100 100
5 5 5 4 3 0 0 0 0 0 0 20 24 11 1 5 4 4 99 100 98 100 100 100 100 98 54 57 100 100 100 100
0 0 0 0 0 0 0 0 0 4 46 67 96 100 87 41 84 61 85 100 100 100 100 100 100 100 77 69 34 50 99 100
5 5 1 0 0 0 0 0 7 38 71 78 89 90 100 100 94 100 100 71 96 100 100 100 100 100 100 100 42 80 100 100
13 5 2 0 0 0 1 26 41 55 89 100 96 100 100 100 98 30 0 5 16 100 100 100 100 100 100 92 75 62 100 100
84 41 5 1 0 26 83 100 89 100 100 100 100 100 100 100 100 98 15 0 0 65 12 100 100 100 100 100 84 46 100 100
86 67 20 5 6 62 93 100 100 100 100 96 100 100 100 100 100 100 48 0 0 42 77 66 100 100 100 100 100 48 100 100
7 5 6 13 26 80 94 78 100 98 100 97 100 100 100 100 100 100 100 84 65 1 45 77 100 100 100 100 100 100 100 100
26 6 29 40 66 98 100 99 100 96 100 100 100 100 100 100 100 100 100 100 100 95 41 95 100 100 100 100 100 100 100 100
6 22 47 43 97 100 100 100 100 100 100 100 100 100 100 100 100 100 100 100 100 99 50 42 98 100 100 100 100 90 100 100
64 60 62 69 100 100 100 99 100 100 100 100 100 100 100 100 100 100 100 100 100 99 87 100 100 100 100 100 100 100 100 100
83 81 62 100 100 100 100 100 100 100 100 100 100 100 100 100 100 100 100 100 100 100 100 100 100 100 100 100 100 100 100 100
89 76 94 100 100 100 100 100 100 100 100 100 100 100 100 100 100 100 100 100 100 100 100 100 100 100 100 100 100 100 100 100
98 100 100 100 100 100 100 100 100 100 100 100 100 100 100 100 100 100 100 100 100 100 100 100 100 100 100 100 100 100 100 100
100 100 100 100 100 100 100 100 100 100 100 100 100 100 100 100 100 100 100 100 100 100 100 100 100 100 100 100 100 100 100 100

GFSFLT1_prec_cloud_114.txt.gz
Cloud_Cover
0 3 5 100 30 22 45 91 100 100 100 100 100 100 99 99 100 100 100 100 100 100 100 100 100 100 9 5 4 5 5 5
0 0 5 43 99 7 5 5 41 76 54 100 93 100 100 100 100 100 100 100 100 100 100 100 100 21 5 5 5 5 5 5
0 0 0 0 1 88 100 90 5 5 5 5 5 5 5 5 37 87 100 100 100 100 100 91 100 19 16 82 80 55 5 5
2 1 0 5 4 5 6 100 98 50 3 1 0 5 5 5 4 5 12 59 93 26 91 40 91 100 100 98 52 40 65 31
0 0 0 0 16 51 8 35 90 100 95 26 35 45 8 12 5 5 24 75 12 7 99 44 36 88 66 86 99 50 100 48
0 0 0 0 0 83 88 74 68 47 38 24 36 29 5 0 0 0 0 0 16 100 11 9 100 81 39 85 100 98 100 100
1 0 0 0 0 0 6 83 97 59 12 44 14 78 100 61 17 2 0 0 0 14 91 56 16 34 96 100 100 100 100 100
5 0 0 0 0 0 0 0 0 3 15 49 93 100 100 100 99 68 30 4 4 3 1 93 100 95 91 100 96 100 100 100
10 5 5 5 0 0 0 0 7 25 97 99 100 100 100 100 97 94 70 48 1 3 20 7 98 100 100 70 96 100 100 82
85 76 5 5 8 15 5 6 6 44 100 100 98 100 100 100 100 100 100 91 36 0 3 20 53 100 99 8 5 100 100 98
31 84 44 88 90 82 8 50 70 61 100 92 99 100 100 100 100 100 100 100 96 63 3 55 57 73 72 44 70 100 100 100
100 98 72 100 100 100 100 38 39 41 100 100 100 100 100 100 100 100 100 100 100 100 37 7 33 65 97 92 78 100 99 98
100 100 100 100 100 95 75 39 41 79 100 100 100 100 100 100 100 100 100 100 100 100 91 35 26 98 97 100 100 100 90 100
100 100 100 100 100 82 43 79 48 53 100 100 100 100 100 100 100 100 100 100 96 100 100 100 100 100 100 100 87 100 100 100
100 100 100 95 100 100 36 87 67 63 100 100 100 100 100 100 100 100 100 100 100 100 80 100 100 100 100 100 100 100 100 100
100 100 100 100 100 56 75 76 100 100 100 100 100 100 100 100 100 100 100 100 100 100 100 100 100 100 100 100 100 100 82 100
100 100 88 100 82 100 100 100 100 100 100 100 100 100 100 100 100 100 100 100 100 100 100 100 100 100 100 100 100 100 100 100
100 95 97 100 100 100 100 100 100 100 100 100 100 100 100 100 100 100 100 100 100 100 100 100 100 100 100 100 100 100 100 100
94 99 100 100 100 100 100 100 100 100 100 100 100 100 100 100 100 100 100 100 100 100 100 100 100 100 100 100 100 100 100 100

GFSFLT1_prec_cloud_117.txt.gz
Cloud_Cover
0 0 0 0 5 52 38 15 6 81 39 100 89 41 11 26 68 100 100 98 100 99 100 100 50 42 89 96 55 35 100 15
0 0 0 0 4 6 0 5 5 5 5 5 12 78 100 100 96 100 100 100 100 100 54 100 100 100 100 100 77 83 81 45
6 1 0 0 1 1 0 0 0 2 5 2 2 5 28 5 26 42 62 36 16 74 100 96 100 92 100 100 100 100 100 53
59 0 0 0 0 0 0 0 0 2 0 0 0 3 57 79 21 5 2 2 5 4 4 10 64 99 100 100 100 100 100 85
35 0 0 0 0 0 0 0 0 0 0 2 1 0 0 5 5 5 0 0 0 0 0 22 5 13 100 100 100 100 98 100
32 10 0 0 0 0 0 0 0 0 0 0 0 5 5 5 5 18 34 5 4 5 5 0 0 0 2 44 100 100 100 100
100 100 38 15 5 0 0 0 0 0 0 0 0 0 27 48 14 9 5 4 3 5 5 0 0 0 0 0 6 92 100 48
100 100 93 43 5 1 0 1 0 0 0 0 4 72 86 100 90 91 74 43 6 2 0 1 30 0 8 0 7 82 100 73
100 100 80 36 46 20 4 3 5 5 5 5 5 78 100 100 100 100 100 100 74 33 8 0 0 13 39 24 5 98 100 98
100 100 100 91 91 71 6 5 5 5 5 18 34 31 66 100 100 100 100 100 100 100 70 42 16 0 15 50 0 26 100 100
95 99 100 100 100 78 65 81 95 71 27 44 56 52 75 96 100 100 100 100 100 100 100 100 100 53 1 22 0 0 27 100
87 99 100 100 100 100 100 100 92 98 100 96 69 90 95 95 100 100 100 100 100 100 100 100 100 100 9 98 28 0 6 100
100 100 100 100 100 100 100 100 100 100 100 100 96 100 100 100 100 100 100 100 100 100 100 100 100 100 57 98 72 0 5 44
100 56 98 100 100 100 100 100 100 100 100 99 98 100 100 100 100 100 100 100 100 100 100 100 100 100 80 38 100 27 100 100
100 100 100 100 100 100 100 100 100 100 100 100 100 100 100 100 100 100 100 100 100 100 100 100 100 100 100 57 74 41 91 100
100 100 100 100 100 82 83 100 98 100 95 97 100 100 100 100 100 100 100 100 100 100 100 100 100 100 100 100 100 100 100 90
100 100 100 100 100 100 100 100 81 100 100 100 100 100 100 100 100 100 100 100 100 100 100 100 100 100 100 100 100 100 100 100
100 100 96 84 90 92 86 87 95 100 100 100 100 100 100 100 100 100 100 100 100 100 100 100 100 100 100 100 100 100 100 100
92 75 74 98 99 88 96 98 100 100 100 100 100 100 100 100 100 100 100 100 100 100 100 100 100 100 100 100 100 100 100 100

GFSFLT1_prec_cloud_120.txt.gz
Cloud_Cover
1 2 3 5 4 0 0 0 0 1 0 6 4 0 5 0 60 100 100 100 100 100 100 100 100 100 100 100 100 100 100 100
0 0 0 0 0 4 0 3 3 0 0 0 3 0 0 4 4 12 100 100 100 100 100 100 100 100 100 100 100 100 100 100
5 6 0 0 0 5 37 100 59 1 0 0 0 0 0 0 3 6 86 100 100 100 100 100 100 94 100 100 100 100 100 100
8 99 16 1 0 3 55 100 100 41 5 0 0 0 0 0 0 1 4 8 86 18 28 61 94 100 100 100 100 100 100 100
54 30 71 3 0 0 5 25 11 5 5 4 0 0 0 0 0 0 0 0 0 0 0 2 1 8 42 80 100 100 100 100
0 88 18 24 23 89 99 100 100 100 4 0 2 5 0 0 0 0 0 0 0 0 0 0 6 27 2 14 56 100 100 100
55 100 100 100 100 100 100 79 16 44 5 1 0 0 0 0 0 14 12 3 2 4 0 0 0 4 14 0 29 7 15 82
100 100 100 100 100 100 84 99 47 29 5 5 5 5 3 4 39 48 100 93 39 1 5 5 28 6 4 88 11 74 0 0
100 100 100 100 100 100 99 52 28 100 100 51 6 8 53 93 72 93 99 96 99 74 58 97 99 90 62 20 1 83 64 0
100 100 100 100 100 100 73 94 55 89 100 100 100 100 100 100 100 97 100 99 100 100 99 100 100 100 100 100 55 2 100 13
100 100 100 100 100 100 100 12 99 100 100 100 100 100 100 100 100 100 100 100 100 100 100 100 100 100 100 100 100 40 81 99
100 100 100 100 100 99 78 96 100 100 100 100 100 100 100 100 100 100 100 100 100 100 100 100 100 100 100 100 100 99 24 100
100 100 100 100 74 100 72 100 100 100 100 100 100 100 100 86 100 100 100 100 100 100 100 100 100 100 100 100 100 100 8 100
100 96 100 100 100 100 100 100 100 100 99 90 100 100 100 89 100 100 100 100 100 100 100 100 100 100 100 100 100 100 65 89
100 100 100 100 100 100 100 100 100 73 78 62 76 100 100 100 100 100 100 100 100 100 100 100 100 100 100 100 100 100 100 34
100 100 100 100 100 100 100 95 97 71 72 78 97 99 98 100 100 100 100 100 100 100 100 100 100 100 100 100 100 100 100 38
100 100 100 100 100 92 67 80 70 78 90 100 100 100 100 100 100 100 100 100 100 100 100 100 100 100 100 100 100 100 100 100
100 100 100 100 100 100 100 92 98 90 99 100 100 100 100 100 100 100 100 100 100 100 100 100 100 100 100 100 100 100 100 100
100 100 95 94 57 27 66 60 80 92 100 100 100 100 100 100 100 100 100 100 100 100 100 100 100 100 100 100 100 100 100 100

GFSFLT1_prec_cloud_123.txt.gz
Cloud_Cover
3 5 1 0 4 5 0 0 0 0 0 0 0 0 0 0 2 26 13 5 100 100 100 100 100 100 100 100 100 100 100 100
0 0 0 4 3 0 4 2 0 0 0 0 0 0 0 0 0 0 0 76 100 100 100 100 100 100 100 100 100 100 100 100
16 8 6 24 32 2 0 0 0 0 44 4 0 0 0 0 0 0 0 1 47 100 100 100 100 100 100 100 100 100 100 100
2 86 78 41 99 29 5 5 14 23 0 76 47 3 0 1 0 0 0 0 5 93 100 100 100 100 100 100 100 100 100 100
3 6 5 100 98 89 100 98 69 87 4 5 81 100 92 17 5 4 2 0 0 5 100 100 100 100 100 100 100 100 100 100
80 88 95 69 100 100 100 93 96 100 98 51 26 74 100 100 97 14 5 4 1 0 6 97 100 100 99 98 100 26 100 100
100 100 100 100 100 100 100 100 99 91 44 5 9 5 7 60 87 99 67 56 5 0 0 1 1 36 74 98 100 97 100 100
100 100 100 100 100 100 100 100 100 100 100 100 81 44 68 99 100 100 98 66 92 72 48 48 95 100 100 99 67 32 6 80
100 100 100 100 96 99 100 100 96 100 100 100 100 100 100 100 100 100 100 100 100 100 100 100 98 99 100 100 100 100 79 9
100 100 100 100 100 100 100 100 99 100 100 100 100 100 100 100 100 100 100 100 100 100 100 100 100 100 100 100 100 100 100 90
100 100 100 100 100 99 91 100 100 100 100 100 100 100 100 100 100 100 100 100 100 100 100 100 100 100 100 100 100 100 100 100
98 100 100 100 100 100 100 100 100 96 100 100 100 100 100 100 100 100 100 100 100 100 100 100 100 100 100 100 100 100 100 100
100 100 100 100 100 100 100 100 100 100 100 92 100 100 100 100 100 100 100 100 100 100 100 100 100 100 100 100 100 100 100 100
83 54 75 100 100 100 94 100 100 100 100 100 99 100 100 100 100 100 100 100 100 100 100 100 100 100 100 100 100 100 100 100
99 77 89 100 100 100 100 100 100 100 100 100 100 100 100 80 90 91 92 96 100 100 100 100 100 100 100 100 100 100 100 100
100 100 98 100 100 100 98 100 100 100 94 97 87 78 73 69 75 85 89 96 99 100 100 100 100 100 100 100 100 100 100 100
100 83 100 100 100 100 60 82 99 87 100 100 80 87 84 95 100 100 100 100 100 99 100 100 100 100 100 100 100 100 100 100
98 80 95 100 100 100 100 100 99 76 53 96 100 100 100 100 100 100 100 98 100 100 100 100 100 100 100 100 100 100 100 100
91 100 100 100 100 100 100 100 100 100 79 88 98 100 100 99 100 100 100 100 100 100 100 100 100 100 100 100 100 100 100 100

GFSFLT1_prec_cloud_126.txt.gz
Cloud_Cover
100 100 93 62 16 5 5 5 5 5 5 2 0 4 0 0 0 2 5 4 47 100 100 100 100 83 100 98 100 99 100 100
14 7 5 5 7 6 1 0 3 0 0 0 0 0 0 0 0 0 0 0 5 48 100 100 59 93 100 100 100 100 100 100
8 4 0 0 2 5 6 19 67 3 0 0 0 0 0 0 0 0 0 0 0 0 4 52 94 49 100 100 100 100 92 100
63 78 66 26 2 17 40 56 68 85 10 69 4 0 0 5 4 2 0 0 0 0 0 6 74 100 100 100 100 100 55 100
99 100 100 98 52 44 3 57 98 100 88 88 11 56 32 1 5 5 4 0 0 0 0 0 1 5 100 100 100 100 100 100
100 100 100 100 100 100 94 42 5 4 94 97 100 100 71 94 50 37 12 7 28 2 0 0 0 0 1 74 100 95 99 100
46 86 100 100 100 100 100 100 94 24 100 88 100 100 100 100 100 100 100 100 100 84 65 89 82 100 98 87 100 100 100 100
80 100 92 100 98 100 100 100 100 100 100 90 100 100 100 100 100 100 100 100 100 100 100 100 100 100 100 100 100 100 100 100
40 66 100 100 99 98 100 100 100 100 84 96 97 100 100 100 100 100 100 100 100 100 100 100 100 100 100 100 100 100 100 100
19 50 99 100 100 100 98 100 92 78 93 98 100 100 100 100 100 100 100 100 100 100 100 100 100 100 100 100 100 100 100 100
4 97 100 100 100 100 100 100 100 98 100 99 100 100 100 100 100 100 100 100 100 100 100 100 100 100 100 100 100 100 100 100
16 90 100 100 100 98 100 100 100 100 100 100 100 100 100 100 100 100 100 100 100 100 100 100 100 100 100 100 100 100 100 100
5 20 100 100 100 100 100 100 100 100 100 100 100 100 100 99 100 100 100 100 100 100 100 100 100 100 100 100 100 100 100 100
12 5 99 100 100 100 100 100 100 100 100 100 100 100 100 94 86 99 100 99 96 100 100 100 100 100 100 100 100 100 100 100
96 59 100 100 100 89 66 92 100 93 100 100 97 84 94 98 100 98 100 96 91 85 96 100 100 100 100 100 100 100 100 100
100 100 100 100 100 90 97 96 80 55 94 96 94 99 100 100 97 100 100 100 97 96 95 100 100 100 100 100 100 100 100 100
99 14 45 71 97 100 100 100 100 100 76 53 100 73 100 100 100 100 100 100 100 100 100 100 100 100 100 100 100 100 100 100
100 75 43 39 40 59 80 100 100 100 100 100 84 99 100 100 100 100 100 100 100 100 100 100 100 100 100 100 100 100 100 100
37 34 14 6 5 5 72 99 100 100 100 100 100 100 100 100 100 100 100 100 100 100 100 100 100 100 100 100 100 100 100 100

GFSFLT1_prec_cloud_129.txt.gz
Cloud_Cover
96 100 100 100 100 100 100 100 75 28 4 9 0 0 0 0 0 0 0 0 0 4 8 70 99 100 99 80 100 100 100 100
100 100 89 35 32 74 15 5 5 2 0 4 4 0 0 0 0 0 0 0 0 0 0 0 61 88 100 87 100 100 100 100
100 100 100 93 77 58 27 6 5 5 5 4 5 5 0 1 0 0 0 0 0 0 0 0 6 16 71 81 100 100 100 100
100 100 100 100 55 22 25 14 3 2 12 82 44 5 2 1 0 2 0 0 0 0 0 4 2 4 6 98 90 100 100 100
100 100 100 100 99 98 100 98 96 84 38 9 5 14 11 94 25 35 33 8 26 36 35 18 28 26 10 41 91 100 100 100
27 20 12 15 82 67 5 21 93 100 97 99 28 5 14 88 99 70 66 100 79 69 100 100 98 58 59 75 53 98 56 100
15 71 29 14 4 4 16 24 44 84 61 54 39 57 65 53 65 70 100 59 85 98 100 100 100 100 100 100 100 100 100 94
81 36 5 0 4 5 5 13 19 26 92 84 88 90 99 100 100 100 100 98 97 100 100 100 100 100 100 100 100 100 100 100
60 3 3 5 5 5 30 6 23 100 100 94 84 100 100 100 100 100 100 100 100 96 94 100 100 100 100 100 100 100 100 100
25 3 5 5 5 9 38 92 100 100 100 100 99 100 100 100 100 100 100 100 99 100 97 100 100 100 100 100 100 100 100 100
83 5 5 5 17 35 49 100 100 100 100 100 100 100 100 100 100 100 100 100 100 97 95 100 100 100 100 100 100 100 100 100
95 5 5 8 41 53 83 99 100 100 100 100 100 100 100 100 100 100 100 100 100 100 100 97 100 100 100 100 100 100 100 100
93 5 5 43 78 96 98 100 100 100 100 100 100 100 100 100 100 100 100 100 100 100 100 100 100 100 100 100 100 100 100 100
64 6 32 79 99 63 28 71 89 92 98 98 96 100 100 100 100 100 100 100 100 100 100 100 97 100 100 100 100 100 100 100
6 21 81 100 35 5 94 100 91 55 78 81 84 98 100 100 100 96 100 100 100 100 100 100 100 100 100 100 100 100 100 100
82 100 88 92 83 30 48 100 100 97 78 69 98 99 100 100 100 100 100 99 98 98 100 100 100 100 100 100 100 100 100 100
100 87 99 78 8 5 5 38 56 97 98 100 100 100 100 100 98 99 100 97 100 100 100 100 100 100 100 100 100 100 100 100
98 94 84 60 46 26 8 68 100 99 100 100 100 100 100 100 100 100 100 97 100 100 100 100 100 100 100 100 100 100 100 100
94 84 56 45 49 18 91 100 100 100 100 100 100 100 100 100 100 100 100 100 100 100 100 100 100 100 100 100 100 100 100 100

GFSFLT1_prec_cloud_132.txt.gz
Cloud_Cover
11 38 68 66 100 100 100 100 100 100 100 100 100 100 100 97 100 100 74 12 5 4 0 1 8 57 96 100 100 100 97 98
100 100 76 88 100 100 72 58 100 96 100 100 100 100 55 62 10 5 5 5 18 5 2 0 0 2 82 99 100 100 100 100
79 98 100 100 100 100 100 100 100 98 46 8 12 5 5 5 5 5 5 4 4 6 8 4 0 0 0 11 92 100 100 100
100 100 99 94 100 100 100 100 100 100 100 100 98 89 65 22 46 81 5 4 0 1 2 0 0 0 0 0 1 31 100 100
100 88 13 24 53 71 45 64 100 100 78 33 55 30 21 5 5 5 9 7 17 79 90 51 6 2 0 0 0 2 67 98
91 78 69 5 5 3 3 2 2 1 1 5 5 5 5 5 5 5 5 5 5 5 48 98 90 79 95 95 63 31 32 8
32 17 4 5 2 0 0 0 0 0 0 1 18 16 8 5 13 5 3 3 4 15 65 100 100 100 100 100 100 100 100 92
82 38 5 2 4 2 5 4 4 5 8 7 27 40 57 48 85 77 87 46 38 100 99 100 100 100 100 100 100 100 100 100
54 1 2 0 5 4 5 1 5 2 28 45 59 70 99 94 100 100 100 100 100 100 100 100 100 100 100 100 100 100 100 100
56 5 3 5 4 5 10 12 8 36 60 68 72 90 100 100 100 100 100 100 100 100 100 100 100 100 100 100 100 100 100 100
56 5 4 4 5 5 10 24 42 68 91 89 84 100 100 100 100 100 100 100 100 100 100 100 100 100 100 100 100 100 100 100
41 50 5 5 5 5 12 50 82 78 81 67 100 100 100 100 100 100 100 100 100 100 100 100 100 100 100 100 100 100 100 100
12 99 41 5 5 5 17 48 79 98 98 88 94 100 100 100 100 100 100 100 100 100 100 100 100 100 100 100 100 100 100 100
36 98 100 90 14 5 43 8 28 58 91 87 98 100 100 100 100 100 100 100 100 100 100 100 100 100 100 100 100 100 100 100
66 35 60 23 48 87 87 5 3 4 6 43 19 47 76 100 100 100 100 100 100 100 100 100 100 100 100 100 100 100 100 100
71 32 81 98 87 47 11 5 5 5 5 29 88 100 100 100 100 99 100 100 100 100 100 100 100 100 100 100 100 100 100 100
58 100 86 100 21 57 5 5 5 5 5 52 83 96 100 100 100 100 100 100 92 94 97 96 100 100 100 100 92 100 100 100
100 100 95 92 33 18 5 5 5 9 39 64 98 100 100 100 100 100 100 100 96 95 99 94 84 98 100 100 100 100 100 100
100 100 100 92 61 5 5 22 68 80 90 85 100 100 100 100 100 100 100 100 100 100 100 100 100 100 100 100 100 100 100 100

GFSFLT1_prec_cloud_135.txt.gz
Cloud_Cover
8 5 28 5 5 5 10 5 7 100 100 100 100 100 100 100 100 100 100 100 100 100 20 0 0 4 16 92 98 100 100 100
5 5 5 4 2 5 84 100 100 67 35 44 100 100 100 100 100 100 100 100 100 100 100 60 1 0 0 0 8 20 81 71
5 7 60 47 61 59 33 41 77 98 100 97 51 12 5 5 11 19 31 96 100 100 100 100 100 7 0 0 0 11 37 48
4 68 100 100 100 100 100 100 100 99 91 85 100 100 100 100 87 82 62 26 5 5 1 0 2 0 0 3 2 1 0 0
3 0 9 35 100 100 100 100 100 100 94 56 5 5 5 1 1 4 2 1 2 2 4 8 5 5 6 17 7 37 35 0
92 70 17 5 5 5 5 4 32 20 2 0 0 0 0 0 0 2 4 0 4 1 27 33 37 42 47 60 81 79 85 55
41 40 21 28 47 15 5 5 5 3 2 4 3 0 0 1 3 2 1 1 2 27 72 91 100 100 97 100 100 100 100 100
61 50 10 5 5 5 4 0 1 0 0 0 2 4 6 6 44 57 76 58 61 96 100 100 100 100 100 100 100 100 100 100
83 62 6 5 5 5 5 5 5 2 4 3 2 13 21 46 75 100 100 100 100 100 100 100 100 100 100 100 100 100 100 100
99 100 100 100 84 87 31 39 5 3 4 12 26 42 57 90 98 96 100 100 100 100 100 100 100 100 100 100 100 100 100 100
100 100 100 100 100 86 16 6 12 29 54 54 49 60 80 87 100 100 100 100 100 100 100 100 100 100 100 100 100 100 100 100
100 100 100 99 33 65 48 19 29 43 54 75 72 67 88 90 100 100 100 100 100 100 100 100 100 100 100 100 100 100 100 100
100 100 100 100 48 10 88 9 41 47 53 88 71 66 100 100 100 100 100 100 100 100 100 100 100 100 100 100 100 100 100 100
100 100 91 74 99 100 100 26 5 5 5 5 5 5 5 49 98 100 100 100 100 100 100 100 100 100 100 100 100 100 100 100
50 66 67 27 5 8 22 50 5 32 5 0 5 5 6 84 98 99 100 100 100 100 100 100 100 100 100 100 100 100 100 100
87 96 100 56 18 89 75 94 5 5 5 5 5 5 5 74 91 88 100 100 100 100 100 98 98 100 100 100 100 100 100 100
90 96 96 70 100 99 91 57 5 5 5 11 57 52 73 77 98 100 100 100 100 100 100 100 100 85 98 100 100 100 100 100
66 86 78 100 100 96 91 21 22 5 6 53 71 70 77 82 100 100 100 100 100 100 100 100 100 88 83 100 96 100 100 99
84 82 100 100 92 86 5 5 6 14 72 75 77 80 66 84 100 100 100 100 100 100 99 100 100 100 95 100 100 100 100 100

GFSFLT1_prec_cloud_138.txt.gz
Cloud_Cover
0 0 0 0 0 3 5 5 5 14 5 43 3 5 98 92 94 100 100 100 100 100 100 90 25 5 0 0 4 28 100 100
2 4 0 0 2 0 5 5 5 5 5 5 5 5 11 43 99 100 100 100 100 100 100 100 100 100 100 18 0 3 100 100
6 5 4 2 1 0 0 5 5 31 92 99 93 91 76 30 19 45 100 100 100 100 100 94 95 100 100 56 4 0 96 100
52 4 5 4 4 5 4 4 2 4 58 100 100 93 94 45 48 9 5 1 1 27 55 98 100 98 76 31 4 0 12 98
100 100 21 5 6 14 5 7 22 88 13 5 6 22 67 100 100 100 86 44 24 3 0 0 0 7 21 16 37 35 35 41
23 51 90 79 5 5 14 20 5 5 6 5 5 5 4 0 0 1 0 0 1 5 0 1 6 90 93 86 98 100 100 100
11 5 5 5 0 0 5 5 5 5 0 0 0 0 0 0 1 5 5 5 5 7 75 100 100 100 100 100 100 100 100 100
0 0 5 5 1 0 1 4 6 5 5 5 4 2 4 5 5 5 28 65 100 100 100 100 100 100 100 100 100 100 100 100
2 3 5 5 34 72 83 100 100 100 100 100 51 5 5 6 37 55 41 100 100 100 100 100 100 100 100 100 100 100 100 100
27 1 6 62 100 100 100 100 100 100 100 100 100 93 10 18 27 55 98 100 98 100 100 100 100 100 100 100 100 100 100 100
78 36 89 100 100 100 100 100 100 100 100 84 46 43 75 76 87 100 100 100 100 100 89 88 98 63 84 100 100 100 100 100
43 4 78 100 74 100 100 82 59 43 43 99 97 100 100 100 100 100 100 100 100 100 100 100 100 100 92 99 100 100 100 100
100 4 38 100 100 100 100 48 10 77 85 27 5 8 19 23 100 96 89 100 100 100 87 100 100 100 100 90 100 100 100 100
100 100 30 81 38 68 100 52 12 35 5 5 5 5 5 5 5 5 14 99 100 100 99 100 99 98 100 89 100 100 100 100
100 100 100 63 6 5 5 6 73 63 5 46 5 5 5 5 5 5 26 83 99 100 87 100 100 85 94 100 98 99 100 97
100 100 100 100 22 62 74 39 99 48 5 5 13 10 5 5 5 56 82 97 100 100 100 98 100 89 77 100 100 100 94 95
100 100 100 100 100 100 21 100 76 9 5 5 7 71 6 6 45 21 90 99 100 100 100 100 100 100 100 98 96 95 92 93
100 100 100 99 42 70 100 88 59 56 31 10 51 5 5 5 14 5 69 100 100 100 100 100 100 100 100 100 82 98 91 97
100 98 100 62 98 100 100 98 100 100 23 17 35 5 5 5 15 77 99 100 100 100 100 100 100 100 92 92 100 100 100 100